Home > Weather > Wetzlar > Past weeks

Flag for Germany Weather for the Past 2 Weeks in Wetzlar, Hesse, Germany

Now
46 °F

Sunny.


Feels Like: 43 °F
Forecast: 37 / 64 °F
Wind: 7 mph from East

Location: Hessen

Current Time: May 4, 2016 at 10:18:13 PM

Latest Report: May 4, 2016 at 8:50 PM


Visibility: 10 mi

Pressure: 30.33 "Hg

Humidity: 50%

Dew Point: 28 °F

Location of WetzlarLocation

Historic Weather in Wetzlar — Graph

°F

Wetzlar Temperature Yesterday

Maximum temperature yesterday: 50 °F (at 5:20 PM)
Minimum temperature yesterday: 41 °F (at 1:20 PM)
Average temperature yesterday: 46 °F

High & Low Weather Summary for the Past Weeks

 TemperatureHumidityPressure
High63 °F (Apr 21, 5:20 PM)100% (Apr 23, 7:50 AM)30.42 "Hg (Apr 23, 7:50 AM)
Low30 °F (Apr 24, 7:50 AM)30% (Apr 21, 5:50 PM)29.47 "Hg (Apr 26, 7:50 AM)
Average44 °F69%30.00 "Hg
* Reported Apr 19 7:20 PM — May 4 7:50 PM, Wetzlar, Weather by CustomWeather, © 2016

Note: Actual official high and low records may vary slightly from our data, if they occured in-between our weather recording intervals... More about our weather records

Advertising

Wetzlar Weather History for the Previous 24 Hours

Scroll right to see more
 ConditionsComfort  
Time TempWeatherWind HumidityBarometerVisibility
7:50 PM
Wed, May 4
52 °FPassing clouds.5 mph35%30.33 "HgN/A
7:20 PM52 °FPassing clouds.7 mph38%30.33 "HgN/A
6:50 PM52 °FPassing clouds.8 mph35%30.33 "HgN/A
6:20 PM52 °FSunny.3 mph38%30.33 "Hg10 mi
5:50 PM52 °FPassing clouds.7 mph38%30.33 "HgN/A
5:20 PM52 °FSunny.6 mph35%30.33 "Hg10 mi
4:50 PM54 °FSunny.2 mph35%30.33 "Hg10 mi
4:20 PM52 °FPassing clouds.7 mph38%30.33 "HgN/A
3:50 PM52 °FSunny.2 mph38%30.33 "Hg10 mi
3:20 PM50 °FSunny.5 mph40%30.33 "Hg10 mi
2:50 PM52 °FPassing clouds.5 mph41%30.33 "HgN/A
2:20 PM50 °FSunny.2 mph40%30.36 "Hg10 mi
1:50 PM48 °FPassing clouds.5 mph46%30.36 "HgN/A
12:50 PM48 °FPassing clouds.6 mph43%30.36 "HgN/A
12:20 PM50 °FPassing clouds.6 mph40%30.36 "HgN/A
11:50 AM48 °FPassing clouds.5 mph43%30.36 "HgN/A
11:20 AM46 °FPassing clouds.5 mph50%30.36 "HgN/A
10:50 AM46 °FPassing clouds.6 mph53%30.36 "HgN/A
9:50 AM43 °FPassing clouds.6 mph66%30.36 "HgN/A
9:20 AM45 °FSunny.2 mph71%30.36 "Hg10 mi
8:50 AM43 °FPassing clouds.7 mph76%30.36 "HgN/A
8:20 AM43 °FPassing clouds.5 mph71%30.36 "HgN/A
7:50 AM41 °FSunny.3 mph76%30.36 "Hg10 mi
7:20 AM39 °FSunny.No wind81%30.36 "Hg10 mi
Weather by CustomWeather, © 2016

See weather overviewHow to use our weather pages